Els Cortals - Les Guilleries





Hora UTC 22:30
Humitat %
Pressió hPa
Pluja 0.2 mm
Velocitat vent km/h
Direcció vent

Dades diàries 2021-07-31



Hora UTC (hivern +1h; estiu +2h)
Temperatura (ºC) Humitat (%) Pressió (hPa) Velocitat vent (km/h) Precipitació (mm)
Hora UTC Aire Humitat Pressió Vel. Dir. Vel. Max Dir. Intent. màx 5 min.
00:05 17.7 91.0 1006.3 0.0 E 0.0 0.0
00:10 17.6 91.0 1006.3 0.0 E 0.0 0.0
00:15 17.5 91.0 1006.3 0.0 E 0.0 0.0
00:20 17.4 91.0 1006.3 0.0 E 0.0 0.0
00:25 17.4 91.0 1006.3 0.0 E 0.0 0.0
00:30 17.3 91.0 1006.2 0.0 E 0.0 0.0
00:35 17.2 91.0 1006.1 0.0 E 0.0 0.0
00:40 17.2 91.0 1006.1 0.0 E 0.0 0.0
00:45 17.2 92.0 1006.1 0.0 E 0.0 0.0
00:50 17.2 92.0 1006.0 0.0 E 0.0 0.0
00:55 17.2 92.0 1006.1 0.0 E 0.0 0.0
01:00 17.2 92.0 1006.0 0.0 E 0.0 0.0
01:05 17.2 91.0 1005.9 0.0 E 0.0 0.0
01:10 17.1 91.0 1005.9 0.0 E 0.0 0.0
01:15 17.1 91.0 1005.7 0.0 E 0.0 0.0
01:20 17.2 92.0 1005.9 0.0 E 0.0 0.0
01:25 17.2 92.0 1005.9 0.0 E 0.0 0.0
01:30 17.3 92.0 1005.8 0.0 E 0.0 0.0
01:35 17.3 92.0 1005.8 0.0 E 0.0 0.0
01:40 17.3 92.0 1005.8 0.0 E 0.0 0.0
01:45 17.4 92.0 1005.7 0.0 E 0.0 0.0
01:50 17.5 91.0 1005.8 0.0 E 3.2 0.0
01:55 17.5 91.0 1005.7 0.0 E 3.2 0.0
02:00 17.6 91.0 1005.7 0.0 E 3.2 0.0
02:05 17.7 91.0 1005.5 0.0 E 6.4 0.0
02:10 17.7 91.0 1005.5 0.0 E 6.4 0.0
02:15 17.7 90.0 1005.2 0.0 E 0.0 0.0
02:20 17.7 90.0 1005.0 0.0 E 1.6 0.0
02:25 17.7 90.0 1004.9 0.0 E 6.4 0.0
02:30 17.6 90.0 1004.7 0.0 E 6.4 0.0
02:35 17.4 90.0 1004.6 0.0 E 6.4 0.0
02:40 17.3 90.0 1004.7 3.2 E 6.4 0.0
02:45 17.3 90.0 1004.6 3.2 E 8.0 0.0
02:50 17.3 91.0 1004.7 0.0 E 6.4 0.0
02:55 17.2 91.0 1004.7 0.0 E 4.8 0.0
03:00 17.2 91.0 1004.7 0.0 E 6.4 0.0
03:05 17.2 91.0 1004.7 0.0 E 3.2 0.0
03:10 17.2 91.0 1004.6 0.0 E 0.0 0.0
03:15 17.2 91.0 1004.6 0.0 E 0.0 0.0
03:20 17.1 91.0 1004.7 0.0 E 0.0 0.0
03:25 17.1 91.0 1004.6 0.0 E 0.0 0.0
03:30 17.1 91.0 1004.6 0.0 E 0.0 0.0
03:35 17.1 92.0 1004.5 0.0 E 0.0 0.0
03:40 17.0 92.0 1004.6 0.0 E 0.0 0.0
03:45 16.9 92.0 1004.6 0.0 E 0.0 0.0
03:50 16.9 92.0 1004.7 0.0 E 0.0 0.0
03:55 16.9 92.0 1004.8 0.0 E 0.0 0.0
04:00 16.9 92.0 1004.9 0.0 E 0.0 0.0
04:05 16.9 92.0 1004.8 0.0 E 0.0 0.0
04:10 17.1 92.0 1004.9 0.0 E 0.0 0.0
04:15 17.1 92.0 1004.8 0.0 E 0.0 0.0
04:20 17.1 92.0 1005.0 0.0 E 0.0 0.0
04:25 17.1 92.0 1004.9 0.0 E 0.0 0.0
04:30 17.0 92.0 1005.1 0.0 E 0.0 0.0
04:35 17.0 92.0 1004.8 0.0 E 0.0 0.0
04:40 16.9 92.0 1004.8 0.0 E 0.0 0.0
04:45 16.9 92.0 1004.8 0.0 E 0.0 0.0
04:50 16.8 92.0 1004.7 0.0 E 0.0 0.0
04:55 16.7 92.0 1004.7 0.0 E 0.0 0.0
05:00 16.7 92.0 1004.8 0.0 E 0.0 0.0
05:05 16.6 92.0 1004.9 0.0 E 0.0 0.0
05:10 16.6 92.0 1005.0 0.0 E 0.0 0.0
05:15 16.5 92.0 1005.0 0.0 E 0.0 0.0
05:20 16.5 92.0 1005.0 0.0 E 0.0 0.0
05:25 16.6 92.0 1005.0 0.0 E 0.0 0.0
05:30 16.6 92.0 1005.1 0.0 E 0.0 0.0
05:35 16.7 92.0 1005.1 0.0 E 0.0 0.0
05:40 16.7 92.0 1005.1 0.0 E 0.0 0.0
05:45 16.8 92.0 1005.2 0.0 E 0.0 0.0
05:50 16.9 92.0 1005.1 0.0 E 0.0 0.0
05:55 17.0 92.0 1005.1 0.0 E 0.0 0.0
06:00 17.1 92.0 1005.0 0.0 E 0.0 0.0
06:05 17.2 92.0 1005.0 0.0 E 0.0 0.0
06:10 17.2 92.0 1005.0 0.0 E 0.0 0.0
06:15 17.3 92.0 1004.9 0.0 E 0.0 0.0
06:20 17.4 92.0 1005.0 0.0 E 0.0 0.0
06:25 17.4 92.0 1005.0 0.0 E 0.0 0.0
06:30 17.4 91.0 1005.0 0.0 E 0.0 0.0
06:35 17.5 91.0 1005.2 0.0 E 0.0 0.0
06:40 17.5 91.0 1005.2 0.0 E 0.0 0.0
06:45 17.6 90.0 1005.1 0.0 E 1.6 0.0
06:50 17.6 89.0 1005.1 0.0 E 1.6 0.0
06:55 17.7 89.0 1005.2 0.0 E 1.6 0.0
07:00 17.9 89.0 1005.2 0.0 E 6.4 0.0
07:05 18.1 88.0 1005.1 0.0 E 6.4 0.0
07:10 18.2 88.0 1005.1 6.4 E 8.0 0.0
07:15 18.3 87.0 1005.1 0.0 E 8.0 0.0
07:20 18.4 87.0 1005.0 1.6 ENE 8.0 0.0
07:25 18.6 86.0 1005.0 6.4 E 8.0 0.0
07:30 18.7 83.0 1005.3 8.0 ENE 11.3 0.0
07:35 18.8 82.0 1005.4 3.2 ENE 11.3 0.0
07:40 19.0 80.0 1005.5 8.0 E 9.7 0.0
07:45 19.1 78.0 1005.4 9.7 ENE 9.7 0.0
07:50 19.0 78.0 1005.4 0.0 E 9.7 0.0
07:55 19.0 78.0 1005.4 4.8 E 8.0 0.0
08:00 19.1 78.0 1005.5 0.0 E 6.4 0.0
08:05 19.1 77.0 1005.5 8.0 ENE 11.3 0.0
08:10 19.3 77.0 1005.5 0.0 E 11.3 0.0
08:15 19.4 76.0 1005.6 4.8 NNE 11.3 0.0
08:20 19.7 75.0 1005.5 9.7 E 11.3 0.0
08:25 19.7 75.0 1005.5 6.4 E 11.3 0.0
08:30 19.7 76.0 1005.5 0.0 E 11.3 0.0
08:35 19.8 76.0 1005.5 0.0 E 9.7 0.0
08:40 20.1 74.0 1005.4 6.4 ESE 8.0 0.0
08:45 20.3 74.0 1005.4 6.4 E 8.0 0.0
08:50 20.4 73.0 1005.4 0.0 ENE 8.0 0.0
08:55 20.8 73.0 1005.3 4.8 ENE 8.0 0.0
09:00 21.0 72.0 1005.4 8.0 E 12.9 0.0
09:05 21.2 71.0 1005.4 1.6 E 14.5 0.0
09:10 21.4 69.0 1005.3 9.7 SSE 17.7 0.0
09:15 21.5 68.0 1005.2 0.0 WNW 17.7 0.0
09:20 22.1 67.0 1005.4 0.0 E 16.1 0.0
09:25 22.6 67.0 1005.2 1.6 ESE 16.1 0.0
09:30 23.1 64.0 1005.2 9.7 NNE 11.3 0.0
09:35 22.8 64.0 1005.2 1.6 SSE 16.1 0.0
09:40 22.6 65.0 1005.0 8.0 NNE 16.1 0.0
09:45 22.7 65.0 1005.2 1.6 SSE 19.3 0.0
09:50 22.9 65.0 1005.1 0.0 SE 19.3 0.0
09:55 22.8 65.0 1005.0 4.8 E 12.9 0.0
10:00 22.9 64.0 1005.0 6.4 NNE 11.3 0.0
10:05 23.1 64.0 1005.0 3.2 E 17.7 0.0
10:10 23.2 63.0 1005.1 0.0 E 17.7 0.0
10:15 23.3 64.0 1005.1 9.7 ENE 19.3 0.0
10:20 23.1 63.0 1005.0 8.0 E 17.7 0.0
10:25 22.8 65.0 1005.1 8.0 SE 17.7 0.0
10:30 22.6 65.0 1005.0 1.6 SSW 14.5 0.0
10:35 22.8 65.0 1005.0 1.6 S 12.9 0.0
10:40 23.2 65.0 1005.0 9.7 ESE 16.1 0.0
10:45 23.7 62.0 1005.0 14.5 ESE 17.7 0.0
10:50 23.3 63.0 1004.9 9.7 E 17.7 0.0
10:55 23.0 64.0 1005.0 11.3 SE 14.5 0.0
11:00 23.0 65.0 1004.7 4.8 ESE 14.5 0.0
11:05 23.0 65.0 1004.6 3.2 SE 14.5 0.0
11:10 22.8 65.0 1004.5 0.0 SE 11.3 0.0
11:15 22.6 66.0 1004.6 0.0 E 16.1 0.0
11:20 22.6 67.0 1004.4 3.2 SSE 16.1 0.0
11:25 22.6 66.0 1004.5 8.0 S 16.1 0.0
11:30 22.3 67.0 1004.4 8.0 E 16.1 0.0
11:35 22.2 67.0 1004.3 9.7 ENE 12.9 0.0
11:40 22.1 67.0 1004.4 14.5 ESE 17.7 0.0
11:45 22.0 67.0 1004.3 0.0 SE 17.7 0.0
11:50 21.9 67.0 1004.3 9.7 ESE 16.1 0.0
11:55 21.9 68.0 1004.2 9.7 ESE 16.1 0.0
12:00 21.8 69.0 1004.1 11.3 E 16.1 0.0
12:05 21.7 70.0 1004.2 12.9 E 19.3 0.0
12:10 0.0
12:15 0.0
12:20 0.0
12:25 0.0
12:30 0.0
12:35 0.0
12:40 0.0
12:45 0.0
12:50 0.0
12:55 0.0
13:00 0.0
13:05 0.0
13:10 19.7 78.0 1004.1 11.3 ESE 12.9 0.0
13:15 19.6 77.0 1003.6 3.2 E 14.5 0.0
13:20 19.6 78.0 1003.7 8.0 SE 12.9 0.0
13:25 19.6 78.0 1004.0 8.0 E 12.9 0.0
13:30 19.7 78.0 1004.2 8.0 SE 11.3 0.0
13:35 19.8 78.0 1004.2 6.4 E 11.3 0.0
13:40 19.9 77.0 1003.9 8.0 E 12.9 0.0
13:45 20.4 76.0 1003.7 6.4 NE 14.5 0.0
13:50 20.8 75.0 1003.6 4.8 ENE 14.5 0.0
13:55 21.2 74.0 1003.5 11.3 ENE 14.5 0.0
14:00 21.4 73.0 1003.8 12.9 E 12.9 0.0
14:05 21.8 73.0 1004.0 3.2 E 14.5 0.0
14:10 21.9 72.0 1004.0 9.7 S 16.1 0.0
14:15 21.9 71.0 1003.9 0.0 ENE 16.1 0.0
14:20 22.0 71.0 1003.8 9.7 E 16.1 0.0
14:25 21.9 70.0 1003.7 6.4 NE 19.3 0.0
14:30 21.8 71.0 1003.6 17.7 ENE 19.3 0.0
14:35 21.6 71.0 1003.6 8.0 ENE 19.3 0.0
14:40 21.8 71.0 1003.5 11.3 E 14.5 0.0
14:45 22.1 69.0 1003.4 3.2 E 14.5 0.0
14:50 22.3 68.0 1003.4 11.3 ENE 17.7 0.0
14:55 22.2 67.0 1003.6 9.7 ENE 17.7 0.0
15:00 21.7 68.0 1003.5 11.3 E 25.7 0.0
15:05 21.2 69.0 1003.6 11.3 E 25.7 0.0
15:10 20.8 71.0 1003.6 11.3 ENE 20.9 0.0
15:15 20.6 72.0 1003.5 11.3 ESE 20.9 0.0
15:20 20.4 73.0 1003.5 9.7 SE 20.9 0.0
15:25 20.2 73.0 1003.4 14.5 ENE 22.5 0.0
15:30 20.0 74.0 1003.7 8.0 ENE 20.9 0.0
15:35 19.9 75.0 1003.5 3.2 ESE 19.3 0.0
15:40 19.8 76.0 1003.6 1.6 SE 14.5 0.0
15:45 19.8 76.0 1003.6 3.2 E 14.5 0.0
15:50 19.7 76.0 1003.6 6.4 ESE 17.7 0.0
15:55 19.4 77.0 1003.6 1.6 E 17.7 0.0
16:00 19.2 78.0 1003.8 12.9 ESE 14.5 0.0
16:05 19.2 77.0 1003.7 8.0 E 12.9 0.0
16:10 19.0 77.0 1003.6 8.0 ENE 12.9 0.0
16:15 18.9 77.0 1003.6 1.6 E 11.3 0.0
16:20 18.8 78.0 1003.5 8.0 ESE 12.9 0.0
16:25 18.7 78.0 1003.1 6.4 ENE 12.9 0.0
16:30 18.5 78.0 1002.9 1.6 E 12.9 0.0
16:35 18.4 79.0 1002.9 8.0 ENE 12.9 0.0
16:40 18.2 79.0 1002.7 11.3 ESE 12.9 0.0
16:45 18.1 80.0 1002.8 6.4 ENE 14.5 0.0
16:50 18.0 80.0 1003.3 1.6 E 14.5 0.0
16:55 17.9 80.0 1003.7 0.0 ENE 8.0 0.0
17:00 17.9 81.0 1003.8 3.2 E 8.0 0.0
17:05 17.8 81.0 1004.2 4.8 ESE 12.9 0.0
17:10 17.7 81.0 1004.0 1.6 SE 12.9 0.0
17:15 17.6 81.0 1003.8 0.0 E 11.3 0.0
17:20 17.5 82.0 1003.6 0.0 E 9.7 0.0
17:25 17.4 82.0 1003.6 0.0 E 3.2 0.0
17:30 17.3 82.0 1003.6 3.2 ENE 8.0 0.0
17:35 17.2 83.0 1003.6 0.0 ENE 8.0 0.0
17:40 17.2 83.0 1003.2 3.2 E 9.7 0.0
17:45 17.1 84.0 1003.0 0.0 E 9.7 0.0
17:50 17.1 85.0 1003.5 0.0 E 6.4 0.0
17:55 17.0 85.0 1003.3 0.0 E 0.0 0.0
18:00 16.9 85.0 1002.9 0.0 E 0.0 0.0
18:05 16.9 85.0 1002.9 1.6 E 6.4 0.0
18:10 16.9 86.0 1003.0 0.0 E 6.4 0.0
18:15 16.9 86.0 1002.9 0.0 E 6.4 0.0
18:20 16.9 86.0 1002.9 0.0 E 6.4 0.0
18:25 16.9 86.0 1002.7 3.2 E 9.7 0.0
18:30 16.8 86.0 1002.3 9.7 ESE 14.5 0.0
18:35 16.7 87.0 1002.7 6.4 ESE 14.5 0.0
18:40 16.6 86.0 1002.9 0.0 SE 9.7 0.0
18:45 16.4 86.0 1003.0 0.0 S 8.0 0.0
18:50 16.4 86.0 1002.9 0.0 SSE 6.4 0.0
18:55 16.3 86.0 1002.6 8.0 E 12.9 0.0
19:00 16.2 87.0 1003.2 0.0 ESE 12.9 0.0
19:05 16.2 87.0 1003.0 6.4 ESE 11.3 0.0
19:10 16.1 86.0 1002.9 1.6 E 11.3 0.0
19:15 15.9 86.0 1002.7 1.6 E 8.0 0.0
19:20 15.9 87.0 1002.6 3.2 E 9.7 0.0
19:25 15.8 87.0 1003.1 0.0 ESE 8.0 0.0
19:30 15.8 87.0 1003.7 0.0 ESE 8.0 0.0
19:35 15.7 87.0 1003.8 0.0 ESE 8.0 0.0
19:40 15.7 87.0 1003.8 0.0 ESE 0.0 0.0
19:45 15.8 87.0 1003.9 0.0 ESE 0.0 0.0
19:50 15.7 87.0 1003.8 0.0 ESE 0.0 0.0
19:55 15.7 88.0 1003.7 0.0 ESE 0.0 0.0
20:00 15.7 88.0 1003.7 0.0 ESE 0.0 0.0
20:05 15.7 88.0 1004.1 0.0 ESE 0.0 0.0
20:10 15.7 89.0 1004.5 0.0 SSW 6.4 0.0
20:15 15.7 89.0 1004.8 3.2 SSW 8.0 0.0
20:15 15.7 89.0 1004.9 1.6 S 9.7 0.3
20:25 0.0
20:30 0.0
20:35 0.0
20:40 0.0
20:45 0.0
20:50 0.0
20:55 0.0
21:00 0.0
21:05 0.0
21:10 0.0
21:15 0.0
21:20 0.0
21:25 0.0
21:30 0.0
21:35 0.0
21:40 0.0
21:45 0.0
21:50 0.0
21:55 0.0
22:00 0.0
22:05 0.0
22:10 0.0
22:15 0.0
22:20 0.0
22:25 0.0
22:30 0.0
Màxima 23.7 92.0 1006.3 17.7 ENE 25.7 0.3
Mínima 15.7 62.0 1002.3
Total 0.3